This demonstration page uses our WeatherBlox Daily Observations layout. Learn more.

38.89511, -77.03637

Hourly Observations for February 22, 2015

Temp ( °F °C ) Dew Point ( °F °C ) Humidity (%) Winds ( mph kmh ) Pressure ( in mb ) Visibility ( mi km ) Precip ( " mm )
12:52 am 00:52 Cloudy with Light Rain 36 2 30 -1 81 81 S 8 13 30.15 1021 4 6.437376 0.03 0.762
1:32 am 01:32 Cloudy with Light Rain 36 2 30 -1 81 81 S 8 13 30.15 1021 7 11.265408 0 0
1:38 am 01:38 Cloudy with Light Rain 36 2 30 -1 81 81 S 7 11 30.15 1021 6 9.656064 0 0
1:52 am 01:52 Cloudy with Light Rain 36 2 30 -1 81 81 S 7 11 30.15 1021 5 8.04672 0.02 0.508
2:52 am 02:52 Cloudy with Light Rain 36 2 30 -1 81 81 S 8 13 30.12 1020 5 8.04672 0.03 0.762
3:04 am 03:04 Cloudy with Light Rain 36 2 30 -1 81 81 S 9 15 30.12 1020 5 8.04672 0 0
3:31 am 03:31 Cloudy with Light Drizzle 36 2 30 -1 81 81 S 9 15 30.12 1020 5 8.04672 0.02 0.508
3:39 am 03:39 Cloudy with Light Drizzle 36 2 30 -1 81 81 S 9 15 30.12 1020 5 8.04672 0.02 0.508
3:52 am 03:52 Cloudy with Light Drizzle 36 2 32 0 87 87 SSW 5 7 30.12 1020 5 8.04672 0.02 0.508
4:52 am 04:52 Cloudy with Light Rain 36 2 30 -1 81 81 Calm 30.12 1020 5 8.04672 0.001 0.001
5:52 am 05:52 Cloudy with Light Rain 36 2 32 0 87 87 Calm 30.15 1021 5 8.04672 0.001 0.001
6:52 am 06:52 Cloudy with Mist and Fog 36 2 32 0 87 87 Calm 30.15 1021 5 8.04672 0.001 0.001
7:52 am 07:52 Cloudy with Mist and Fog 36 2 32 0 87 87 SSE 3 6 30.18 1022 5 8.04672 0 0
7:59 am 07:59 Cloudy with Mist and Fog 36 2 32 0 87 87 Calm 30.18 1022 4 6.437376 0 0
8:40 am 08:40 Cloudy with Haze 37 3 32 0 81 81 Calm 30.18 1022 4 6.437376 0 0
8:52 am 08:52 Cloudy with Haze 37 3 34 1 87 87 Calm 30.18 1022 5 8.04672 0 0
9:52 am 09:52 Cloudy with Mist and Fog 37 3 34 1 87 87 Calm 30.21 1023 5 8.04672 0 0
10:52 am 10:52 Cloudy with Haze 39 4 34 1 81 81 Calm 30.21 1023 5 8.04672 0 0
11:52 am 11:52 Mostly Cloudy with Haze 43 6 34 1 71 71 Calm 30.21 1023 6 9.656064 0 0
12:52 pm 12:52 Mostly Cloudy with Haze 45 7 34 1 66 66 Calm 30.21 1023 6 9.656064 0 0
1:52 pm 13:52 Mostly Cloudy 46 8 36 2 66 66 Calm 30.18 1022 8 12.874752 0 0
2:52 pm 14:52 Mostly Cloudy 46 8 34 1 62 62 NE 3 6 30.18 1022 10 16.09344 0 0
3:52 pm 15:52 Mostly Cloudy 48 9 30 -1 50 50 NNW 9 15 30.18 1022 10 16.09344 0 0
4:52 pm 16:52 Mostly Cloudy 48 9 30 -1 50 50 NW 3 6 30.18 1022 10 16.09344 0 0
5:52 pm 17:52 Mostly Cloudy 46 8 28 -2 50 50 N 5 7 30.21 1023 10 16.09344 0 0
6:52 pm 18:52 Mostly Cloudy 43 6 30 -1 61 61 Calm 30.21 1023 10 16.09344 0 0
7:52 pm 19:52 Mostly Cloudy 43 6 32 0 66 66 S 5 7 30.24 1024 10 16.09344 0 0
8:52 pm 20:52 Mostly Cloudy 41 5 34 1 76 76 SSW 6 9 30.27 1025 10 16.09344 0 0
9:52 pm 21:52 Cloudy 37 3 30 -1 75 75 Calm 30.27 1025 10 16.09344 0 0
10:52 pm 22:52 Cloudy 43 6 28 -2 57 57 NNW 8 13 30.27 1025 10 16.09344 0 0
11:52 pm 23:52 Cloudy 41 5 28 -2 61 61 NNW 8 13 30.27 1025 10 16.09344 0 0

Powered by AerisWeather